STARLINK-1645 (47622 NORAD) Tracking and Keplerian Element Data

This shows tracking and keplerian element data for the satellite.

Feedback or suggestion? Click here.




ElementValue
Catalog47622
NameSTARLINK-1645
Epoch Orbit990
Epoch Day106.16668981
Epoch Year2021
RAAN180.5975
Inclination53.0523
Eccentricity0.0001121
Argument of Perigee80.7915
Mean Anonmoly97.8721
Mean Motion15.06390998
Decay Rate0.00026053
L11 47622U 21012C 21106.16668981 .00026053 00000-0 17619-2 0 9994
L22 47622 53.0523 180.5975 0001121 80.7915 97.8721 15.06390998 9903

Live tracking and technical data element details for STARLINK-1645 (NORAD 47622). STARLINK-1645 can be tracked NOW for your location showing map with azimuth and elevation plus other details from your city location.

Track the satellite on the map from your city or location and see movement details for azimuth, elevation, latitude, longitude, range, height, and movement on the map or in text.







IsCatalogInMostPopularTable: catalog: 47622, numindb: 16
Update: records affected: 1



GetName: 47622 STARLINK-1645

Hit Count: updated at: Fri, 16 Apr 2021 10:15:09 GMT